Location: Torrington
(42.0650°N, 104.1810°W)
Time: 06:10:35
(UTC-06:00)

Amateur Radio Satellites - All Passes

Search period start: 30 July 2015 05:40
Search period end: 31 July 2015 05:40
Location: Torrington, 42.0650°N, 104.1810°W

Satellite Date Start Highest point End Downlink Frequencies (MHz)
Time Altitude Azimuth
RS-15 30 Jul 05:42:55 05:53:51 44° 39° (NE) 06:05:20 29.354- 29.394
MOZHAYETS 4 30 Jul 05:45:21 05:48:46 20° 269° (W) 05:52:05
JAS-2 30 Jul 05:51:16 05:57:43 29° 298° (WNW) 06:04:03 435.910
GONETS M04 30 Jul 05:52:39 06:00:24 39° 87° (E) 06:08:18
CUBESAT XI-V 30 Jul 05:54:22 05:58:52 49° 73° (ENE) 06:03:24 437.345
AO-7 30 Jul 06:04:52 06:12:56 54° 295° (WNW) 06:20:53 29.400- 29.500
HORYU 2 30 Jul 06:07:39 06:11:00 20° 294° (WNW) 06:14:13 437.375
Cubesat XI-IV 30 Jul 06:23:57 06:28:06 23° 92° (E) 06:32:21 437.490
PRISM 30 Jul 06:24:32 06:27:54 24° 68° (ENE) 06:31:21 437.425
STRAND 1 30 Jul 07:06:08 07:11:18 83° 73° (ENE) 07:16:28 437.568
Cosmos 2499 30 Jul 07:13:18 07:19:06 27° 83° (E) 07:25:26 435.465 / 435.565
CUTE-I 30 Jul 07:19:49 07:25:09 75° 102° (ESE) 07:30:28 437.470
CUBESAT XI-V 30 Jul 07:33:25 07:36:37 17° 270° (W) 07:39:40 437.345
GONETS M04 30 Jul 07:48:50 07:57:09 47° 287° (WNW) 08:05:25
RS-15 30 Jul 07:55:29 08:07:09 67° 243° (WSW) 08:19:08 29.354- 29.394
PRISM 30 Jul 07:59:33 08:03:14 29° 264° (W) 08:06:53 437.425
AO-7 30 Jul 08:00:27 08:04:02 13° 316° (NW) 08:07:11 29.400- 29.500
AUBIESAT-1 30 Jul 08:00:29 08:01:28 11° 54° (NE) 08:02:39 437.475
BEESAT 2 30 Jul 08:00:45 08:03:12 16° 40° (NE) 08:05:45 435.950
Cubesat XI-IV 30 Jul 08:03:22 08:08:28 45° 290° (WNW) 08:13:29 437.490
BRITE-PL 30 Jul 08:09:14 08:13:04 30° 96° (E) 08:17:10 437.365/2234.400
HO-68 30 Jul 08:13:53 08:18:17 18° 88° (E) 08:23:03 435.675
CUTE 1.7 + AOD 2 30 Jul 08:21:50 08:22:55 11° 87° (E) 08:24:15 437.475
CANX-2 30 Jul 08:28:41 08:31:08 15° 89° (E) 08:33:45 2200.000
DOVE 4 30 Jul 08:31:06 08:34:27 20° 93° (E) 08:38:03 437.250
GOMX 1 30 Jul 08:31:19 08:35:18 32° 96° (E) 08:39:34 467.674
BEESAT 3 30 Jul 08:43:00 08:46:52 42° 51° (NE) 08:50:42 437.485
STRAND 1 30 Jul 08:49:22 08:51:15 12° 273° (W) 08:52:49 437.568
AAUSAT CUBESAT 2 30 Jul 08:53:49 08:55:48 13° 89° (E) 08:58:00 437.432
CINEMA 3 30 Jul 08:56:55 08:59:56 17° 91° (E) 09:03:12 145.822/145.860
M-CUBED/EXP-1 PRIME 30 Jul 09:00:06 09:03:57 49° 67° (ENE) 09:08:09 437.505
CUTE-I 30 Jul 09:01:29 09:04:40 16° 299° (WNW) 09:07:39 437.470
Cosmos 2499 30 Jul 09:04:28 09:11:41 58° 284° (WNW) 09:19:30 435.465 / 435.565
UNISAT 6 30 Jul 09:15:59 09:17:10 11° 62° (ENE) 09:18:35 437.425
AIST 2 30 Jul 09:18:26 09:21:40 21° 43° (NE) 09:24:55 435.215
SO-50 30 Jul 09:27:43 09:31:40 27° 113° (ESE) 09:35:46 436.795
AUBIESAT-1 30 Jul 09:31:28 09:35:27 86° 251° (WSW) 09:39:49 437.475
UWE-3 30 Jul 09:31:53 09:34:19 15° 89° (E) 09:36:58 435.000/436.395/437.385
PCSat 30 Jul 09:35:30 09:40:39 48° 114° (ESE) 09:45:53 145.827
FUNcube-1 30 Jul 09:36:28 09:37:54 12° 87° (E) 09:39:37 145.935
BEESAT 2 30 Jul 09:37:40 09:41:44 68° 240° (WSW) 09:45:43 435.950
CUBEBUG 2 30 Jul 09:41:53 09:45:33 24° 93° (E) 09:49:24 437.445
COMPASS 1 30 Jul 09:44:15 09:48:26 59° 100° (E) 09:52:36 437.405
BRITE-PL 30 Jul 09:48:00 09:51:33 25° 290° (WNW) 09:55:12 437.365/2234.400
Oscar 11 30 Jul 09:51:22 09:55:03 26° 94° (E) 09:58:46 145.826/435.025
POPSAT HIP 1 30 Jul 09:54:48 09:55:27 10° 62° (ENE) 09:56:20 437.405
CUTE 1.7 + AOD 2 30 Jul 09:55:04 09:59:21 66° 285° (WNW) 10:03:36 437.475
SEEDS 30 Jul 09:55:40 09:59:58 81° 284° (WNW) 10:04:13 437.485
TIGRISAT 30 Jul 09:57:24 10:01:05 28° 69° (ENE) 10:04:54 435.000
ANTELSAT 30 Jul 09:58:09 10:01:55 30° 69° (ENE) 10:05:49 437.575/2403.000
HO-68 30 Jul 09:59:45 10:06:59 84° 287° (WNW) 10:14:11 435.675
QB50P2 30 Jul 10:00:40 10:02:28 13° 64° (ENE) 10:04:28 145.880/145.840
CANX-2 30 Jul 10:03:13 10:07:24 48° 287° (WNW) 10:11:30 2200.000
DOVE 4 30 Jul 10:08:06 10:12:22 41° 288° (WNW) 10:16:52 437.250
GOMX 1 30 Jul 10:09:40 10:13:23 26° 290° (WNW) 10:17:10 467.674
RS-15 30 Jul 10:11:40 10:17:49 15° 262° (W) 10:22:56 29.354- 29.394
HUMSAT D 30 Jul 10:17:44 10:19:42 13° 89° (E) 10:21:53 437.325/437.525
BEESAT 3 30 Jul 10:21:41 10:24:31 18° 248° (WSW) 10:27:13 437.485
DUCHIFAT 1 30 Jul 10:26:09 10:29:20 22° 68° (ENE) 10:32:36 145.980
QB50P1 30 Jul 10:27:36 10:30:56 24° 68° (ENE) 10:34:20 145.935-145.965
AAUSAT CUBESAT 2 30 Jul 10:27:40 10:31:47 52° 286° (WNW) 10:35:51 437.432
DELFI C3 30 Jul 10:28:38 10:32:33 45° 98° (E) 10:36:27 145.870
NANOSAT C BR1 30 Jul 10:29:39 10:33:01 24° 68° (ENE) 10:36:29 145.865
CINEMA 3 30 Jul 10:32:55 10:37:24 50° 287° (WNW) 10:42:03 145.822/145.860
M-CUBED/EXP-1 PRIME 30 Jul 10:36:51 10:39:10 14° 267° (W) 10:41:25 437.505
ZACube-1 30 Jul 10:47:32 10:52:04 70° 101° (E) 10:56:38 437.345
UNISAT 6 30 Jul 10:49:01 10:53:20 77° 257° (WSW) 10:57:48 437.425
AIST 2 30 Jul 10:56:27 11:00:28 45° 242° (WSW) 11:04:24 435.215
Cosmos 2499 30 Jul 11:06:03 11:07:16 10° 309° (NW) 11:07:52 435.465 / 435.565
UWE-3 30 Jul 11:06:44 11:11:14 58° 286° (WNW) 11:15:48 435.000/436.395/437.385
SO-50 30 Jul 11:07:31 11:12:02 41° 311° (NW) 11:16:41 436.795
POLYITAN 1 30 Jul 11:08:39 11:12:49 69° 75° (ENE) 11:17:01 437.675
FUNcube-1 30 Jul 11:10:14 11:14:45 70° 285° (WNW) 11:19:18 145.935
CUBEBUG 2 30 Jul 11:18:06 11:22:19 36° 289° (WNW) 11:26:36 437.445
PCSat 30 Jul 11:19:41 11:24:21 28° 313° (NW) 11:28:57 145.827
AISAT 30 Jul 11:20:11 11:23:50 25° 94° (E) 11:27:33 437.250
YUBILEINY 30 Jul 11:20:22 11:28:41 44° 72° (ENE) 11:37:03 435.215
COMPASS 1 30 Jul 11:21:32 11:23:39 13° 296° (WNW) 11:25:35 437.405
O/OREOS (USA 219) 30 Jul 11:23:00 11:27:08 33° 59° (ENE) 11:31:18 437.305
POPSAT HIP 1 30 Jul 11:26:35 11:30:46 77° 258° (WSW) 11:34:59 437.405
Oscar 11 30 Jul 11:27:26 11:31:12 28° 291° (WNW) 11:34:54 145.826/435.025
UKube-1 30 Jul 11:28:02 11:32:11 46° 99° (E) 11:36:21 .
QB50P2 30 Jul 11:33:45 11:37:55 61° 259° (W) 11:42:06 145.880/145.840
TIGRISAT 30 Jul 11:34:09 11:37:49 26° 266° (W) 11:41:31 435.000
ANTELSAT 30 Jul 11:35:06 11:38:43 25° 266° (W) 11:42:21 437.575/2403.000
CUBEBUG 1 30 Jul 11:40:58 11:44:26 24° 94° (E) 11:47:58 437.445
BUGSAT 1 30 Jul 11:41:46 11:45:50 82° 257° (WSW) 11:49:53 437.445
HO-68 30 Jul 11:49:13 11:53:48 18° 305° (NW) 11:58:07 435.675
HUMSAT D 30 Jul 11:51:36 11:55:51 56° 286° (WNW) 12:00:05 437.325/437.525
DX 1 30 Jul 11:52:48 11:57:10 85° 287° (WNW) 12:01:31 434.975-435.025
Cosmos 2491 30 Jul 11:54:27 12:01:58 35° 86° (E) 12:09:40 435.465 / 435.565
VELOX 1 30 Jul 11:59:22 12:03:47 66° 102° (ESE) 12:08:08 145.980
DUCHIFAT 1 30 Jul 12:01:13 12:04:59 32° 264° (W) 12:08:44 145.980
ESTCUBE 1 30 Jul 12:02:55 12:07:18 50° 99° (E) 12:11:40 437.505/2401.250
QB50P1 30 Jul 12:02:59 12:06:41 29° 264° (W) 12:10:22 145.935-145.965
DELFI C3 30 Jul 12:04:48 12:07:16 15° 294° (WNW) 12:09:37 145.870
NANOSAT C BR1 30 Jul 12:05:06 12:08:47 28° 265° (W) 12:12:24 145.865
50 SAT 30 Jul 12:10:16 12:14:16 71° 285° (WNW) 12:18:12 437.505
SPROUT 30 Jul 12:24:55 12:28:13 22° 93° (E) 12:31:35 437.525
ZACube-1 30 Jul 12:25:42 12:27:56 13° 296° (WNW) 12:29:57 437.345
TISAT 1 30 Jul 12:44:46 12:47:58 21° 93° (E) 12:51:16 437.305
AIST 1 30 Jul 12:52:16 12:56:37 72° 279° (W) 13:00:57
Oscar 19 30 Jul 12:52:55 12:57:33 37° 69° (ENE) 13:02:16 437.125/150
AISAT 30 Jul 12:56:33 13:00:26 30° 291° (WNW) 13:04:14 437.250
Cosmos 2504 30 Jul 12:59:13 13:05:35 24° 65° (ENE) 13:12:24 435.465 / 435.565
O/OREOS (USA 219) 30 Jul 13:02:38 13:06:28 26° 256° (WSW) 13:10:11 437.305
UKube-1 30 Jul 13:05:07 13:08:00 17° 295° (WNW) 13:10:45 .
CUBEBUG 1 30 Jul 13:17:00 13:20:50 31° 290° (WNW) 13:24:36 437.445
YUBILEINY 30 Jul 13:17:23 13:25:31 42° 272° (W) 13:33:30 435.215
AO-7 30 Jul 13:25:44 13:28:27 12° 43° (NE) 13:31:38 29.400- 29.500
Gurwin Techsat 1B 30 Jul 13:36:31 13:41:01 30° 67° (ENE) 13:45:38 435.225
VELOX 1 30 Jul 13:37:42 13:39:50 13° 297° (WNW) 13:41:47 145.980
ESTCUBE 1 30 Jul 13:40:52 13:43:49 17° 295° (WNW) 13:46:37 437.505/2401.250
Cosmos 2491 30 Jul 13:50:02 13:58:35 53° 285° (WNW) 14:07:03 435.465 / 435.565
SPROUT 30 Jul 14:00:30 14:04:23 33° 289° (WNW) 14:08:13 437.525
BEESAT 30 Jul 14:02:19 14:06:14 25° 94° (E) 14:10:13 436.000
ITAMSAT 1 30 Jul 14:09:13 14:14:15 52° 71° (ENE) 14:19:20 435.822/435.867
JAS-2 30 Jul 14:18:54 14:24:02 30° 62° (ENE) 14:29:51 435.910
TISAT 1 30 Jul 14:20:01 14:23:49 32° 289° (WNW) 14:27:34 437.305
SWISSCUBE 30 Jul 14:22:09 14:26:43 43° 99° (E) 14:31:15 437.505
CUSAT 1 30 Jul 14:26:23 14:28:05 12° 71° (ENE) 14:30:11 437.405
Oscar 19 30 Jul 14:32:40 14:37:01 27° 266° (W) 14:41:19 437.125/150
ITUPSAT 1 30 Jul 14:42:04 14:46:49 63° 101° (ESE) 14:51:33 437.325
Cosmos 2504 30 Jul 14:50:21 14:58:43 77° 265° (W) 15:07:19 435.465 / 435.565
STARS 30 Jul 15:05:07 15:05:46 10° 87° (E) 15:06:42 437.465
AO-7 30 Jul 15:11:33 15:19:28 51° 64° (ENE) 15:27:30 29.400- 29.500
Gurwin Techsat 1B 30 Jul 15:16:01 15:20:55 36° 264° (W) 15:25:48 435.225
KKS-1 30 Jul 15:24:35 15:28:29 30° 96° (E) 15:32:26 437.445
HORYU 2 30 Jul 15:28:54 15:33:03 41° 71° (ENE) 15:37:16 437.375
DANDE 30 Jul 15:33:44 15:37:03 36° 78° (ENE) 15:41:20 436.750
BEESAT 30 Jul 15:39:49 15:44:09 35° 291° (WNW) 15:48:26 436.000
ITAMSAT 1 30 Jul 15:50:17 15:54:07 20° 269° (W) 15:57:48 435.822/435.867
SWISSCUBE 30 Jul 16:00:40 16:04:18 21° 295° (WNW) 16:07:48 437.505
GONETS M04 30 Jul 16:02:30 16:08:14 20° 60° (ENE) 16:14:24
JAS-2 30 Jul 16:03:02 16:08:48 48° 264° (W) 16:15:19 435.910
CUSAT 1 30 Jul 16:06:44 16:10:39 56° 261° (W) 16:15:50 437.405
ITUPSAT 1 30 Jul 16:21:20 16:24:15 16° 297° (WNW) 16:26:59 437.325
STARS 30 Jul 16:38:23 16:42:48 73° 285° (WNW) 16:47:13 437.465
Cosmos 2504 30 Jul 16:45:19 16:49:48 15° 282° (WNW) 16:53:46 435.465 / 435.565
KKS-1 30 Jul 17:01:17 17:05:02 27° 292° (WNW) 17:08:44 437.445
CUTE-I 30 Jul 17:04:28 17:07:54 18° 62° (ENE) 17:11:31 437.470
Cosmos 2499 30 Jul 17:04:42 17:06:44 11° 52° (NE) 17:09:28 435.465 / 435.565
AO-7 30 Jul 17:04:49 17:12:30 38° 263° (W) 17:20:06 29.400- 29.500
HORYU 2 30 Jul 17:06:39 17:09:54 19° 268° (W) 17:13:03 437.375
DANDE 30 Jul 17:17:52 17:20:08 15° 264° (W) 17:22:32 436.750
MOZHAYETS 4 30 Jul 17:38:24 17:43:04 84° 284° (WNW) 17:47:41
Cubesat XI-IV 30 Jul 17:46:07 17:51:05 41° 69° (ENE) 17:56:06 437.490
CUBESAT XI-V 30 Jul 17:52:54 17:54:18 11° 87° (E) 17:55:58 437.345
GONETS M04 30 Jul 17:57:48 18:06:34 90° 97° (E) 18:15:20
SO-50 30 Jul 17:58:12 18:02:37 31° 46° (NE) 18:06:59 436.795
PCSat 30 Jul 18:22:50 18:28:01 43° 53° (NE) 18:33:11 145.827
CUTE-I 30 Jul 18:42:10 18:47:30 66° 258° (WSW) 18:52:52 437.470
HO-68 30 Jul 18:44:44 18:48:34 16° 53° (NE) 18:52:44 435.675
VERMONT LUNAR 30 Jul 18:51:05 18:53:17 17° 153° (SSE) 18:55:31 437.305
Cosmos 2499 30 Jul 18:53:49 19:02:19 55° 76° (ENE) 19:11:01 435.465 / 435.565
STRAND 1 30 Jul 19:16:49 19:21:04 27° 94° (E) 19:25:24 437.568
BRITE-PL 30 Jul 19:20:59 19:25:02 36° 72° (ENE) 19:28:56 437.365/2234.400
CANX-2 30 Jul 19:23:07 19:24:52 13° 64° (ENE) 19:26:49 2200.000
Cubesat XI-IV 30 Jul 19:26:48 19:31:20 27° 266° (W) 19:35:48 437.490
CUBESAT XI-V 30 Jul 19:27:44 19:32:21 71° 285° (WNW) 19:36:55 437.345
DOVE 4 30 Jul 19:38:11 19:41:04 19° 67° (ENE) 19:44:04 437.250
SO-50 30 Jul 19:38:38 19:43:15 39° 244° (WSW) 19:47:42 436.795
GOMX 1 30 Jul 19:40:35 19:44:23 33° 71° (ENE) 19:48:10 467.674
PRISM 30 Jul 19:40:55 19:44:42 35° 97° (E) 19:48:28 437.425
AAUSAT CUBESAT 2 30 Jul 19:46:35 19:47:24 11° 63° (ENE) 19:48:27 437.432
GONETS M04 30 Jul 19:56:45 20:02:20 18° 281° (W) 20:07:28
CINEMA 3 30 Jul 20:00:20 20:02:38 15° 65° (ENE) 20:05:05 145.822/145.860
PCSat 30 Jul 20:06:39 20:11:15 28° 251° (WSW) 20:15:45 145.827
RS-15 30 Jul 20:12:31 20:18:44 18° 100° (E) 20:25:49 29.354- 29.394
PHONESAT 2.4 30 Jul 20:15:26 20:17:11 13° 149° (SSE) 20:19:01 2401.200-2431.200
VERMONT LUNAR 30 Jul 20:26:32 20:29:38 51° 169° (S) 20:32:45 437.305
HO-68 30 Jul 20:28:11 20:35:17 77° 72° (ENE) 20:42:28 435.675
UWE-3 30 Jul 20:30:54 20:32:24 12° 63° (ENE) 20:34:06 435.000/436.395/437.385
COMPASS 1 30 Jul 20:35:38 20:39:36 42° 72° (ENE) 20:43:37 437.405
CUBEBUG 2 30 Jul 20:41:24 20:44:21 19° 66° (ENE) 20:47:27 437.445
Oscar 11 30 Jul 20:46:52 20:50:13 23° 68° (ENE) 20:53:40 145.826/435.025
Cosmos 2499 30 Jul 20:47:32 20:55:12 35° 274° (W) 21:02:47 435.465 / 435.565
SEEDS 30 Jul 20:47:41 20:51:54 74° 76° (ENE) 20:56:11 437.485
CUTE 1.7 + AOD 2 30 Jul 20:47:52 20:52:08 89° 246° (WSW) 20:56:28 437.475
STRAND 1 30 Jul 20:55:41 21:00:23 37° 291° (WNW) 21:05:00 437.568
CANX-2 30 Jul 20:56:04 21:00:18 65° 259° (W) 21:04:35 2200.000
BRITE-PL 30 Jul 21:00:28 21:03:44 19° 267° (W) 21:06:46 437.365/2234.400
HUMSAT D 30 Jul 21:11:55 21:12:20 10° 62° (ENE) 21:12:59 437.325/437.525
DOVE 4 30 Jul 21:14:49 21:18:40 35° 263° (W) 21:22:29 437.250
DELFI C3 30 Jul 21:16:13 21:19:44 29° 70° (ENE) 21:23:19 145.870
PRISM 30 Jul 21:16:53 21:19:55 20° 294° (WNW) 21:22:51 437.425
AAUSAT CUBESAT 2 30 Jul 21:18:15 21:22:27 75° 259° (W) 21:26:41 437.432
GOMX 1 30 Jul 21:19:29 21:22:41 20° 267° (W) 21:25:43 467.674
CINEMA 3 30 Jul 21:35:28 21:39:28 48° 261° (W) 21:43:34 145.822/145.860
ZACube-1 30 Jul 21:43:57 21:48:02 55° 74° (ENE) 21:52:13 437.345
ISS 30 Jul 21:51:11 21:54:19 48° 141° (SE) 21:57:30 145.825
PHONESAT 2.4 30 Jul 21:51:19 21:54:40 43° 164° (SSE) 21:58:01 2401.200-2431.200
VERMONT LUNAR 30 Jul 22:03:06 22:06:16 64° 185° (S) 22:09:24 437.305
UWE-3 30 Jul 22:04:16 22:08:24 66° 259° (WSW) 22:12:40 435.000/436.395/437.385
Cosmos 2491 30 Jul 22:04:30 22:09:36 17° 57° (ENE) 22:15:11 435.465 / 435.565
FUNcube-1 30 Jul 22:06:16 22:10:27 85° 257° (WSW) 22:14:45 145.935
COMPASS 1 30 Jul 22:12:41 22:15:30 17° 269° (W) 22:18:11 437.405
M-CUBED/EXP-1 PRIME 30 Jul 22:14:55 22:19:27 41° 102° (ESE) 22:23:55 437.505
CUBEBUG 2 30 Jul 22:16:56 22:20:49 37° 263° (W) 22:24:45 437.445
AISAT 30 Jul 22:18:31 22:22:06 25° 68° (ENE) 22:25:45 437.250
RS-15 30 Jul 22:18:36 22:29:28 80° 121° (ESE) 22:40:48 29.354- 29.394
HO-68 30 Jul 22:18:44 22:23:51 20° 271° (W) 22:28:41 435.675
Oscar 11 30 Jul 22:22:18 22:26:14 33° 264° (W) 22:30:11 145.826/435.025
UKube-1 30 Jul 22:23:08 22:27:11 41° 71° (ENE) 22:31:17 .
CUBEBUG 1 30 Jul 22:37:47 22:41:07 22° 67° (ENE) 22:44:31 437.445
UNISAT 6 30 Jul 22:40:55 22:44:32 23° 93° (E) 22:48:17 437.425
HUMSAT D 30 Jul 22:43:22 22:47:30 77° 258° (WSW) 22:51:43 437.325/437.525
AUBIESAT-1 30 Jul 22:45:41 22:50:28 73° 108° (ESE) 22:55:07 437.475
DX 1 30 Jul 22:48:31 22:52:52 87° 78° (ENE) 22:57:14 434.975-435.025
DELFI C3 30 Jul 22:51:37 22:54:50 22° 267° (W) 22:58:00 145.870
50 SAT 30 Jul 22:54:06 22:57:56 65° 75° (ENE) 23:01:50 437.505
POLYITAN 1 30 Jul 22:56:00 22:57:03 11° 88° (E) 22:58:23 437.675
VELOX 1 30 Jul 22:57:09 23:01:29 61° 74° (ENE) 23:05:52 145.980
AIST 1 30 Jul 22:59:21 23:02:59 27° 74° (ENE) 23:06:40
ESTCUBE 1 30 Jul 23:02:45 23:07:08 49° 72° (ENE) 23:11:31 437.505/2401.250
POPSAT HIP 1 30 Jul 23:12:17 23:14:59 17° 91° (E) 23:17:50 437.405
QB50P2 30 Jul 23:19:11 23:22:22 21° 93° (E) 23:25:40 145.880/145.840
SPROUT 30 Jul 23:20:01 23:22:55 19° 66° (ENE) 23:25:58 437.525
ZACube-1 30 Jul 23:22:54 23:24:51 13° 272° (W) 23:26:37 437.345
TIGRISAT 30 Jul 23:24:11 23:28:49 60° 100° (E) 23:33:29 435.000
BUGSAT 1 30 Jul 23:24:58 23:26:54 13° 90° (E) 23:29:03 437.445
ANTELSAT 30 Jul 23:25:18 23:29:58 64° 101° (E) 23:34:39 437.575/2403.000
ISS 30 Jul 23:28:02 23:30:54 27° 338° (NNW) 23:33:46 145.825
PHONESAT 2.4 30 Jul 23:28:59 23:32:29 69° 181° (S) 23:35:58 2401.200-2431.200
BEESAT 2 30 Jul 23:32:16 23:35:11 20° 113° (ESE) 23:38:14 435.950
TISAT 1 30 Jul 23:37:51 23:40:38 18° 66° (ENE) 23:43:31 437.305
VERMONT LUNAR 30 Jul 23:39:58 23:42:45 28° 201° (SSW) 23:45:31 437.305
DUCHIFAT 1 30 Jul 23:44:57 23:48:52 36° 98° (E) 23:52:49 145.980
QB50P1 30 Jul 23:47:00 23:51:00 40° 98° (E) 23:55:03 145.935-145.965
NANOSAT C BR1 30 Jul 23:48:49 23:52:51 41° 98° (E) 23:56:54 145.865
M-CUBED/EXP-1 PRIME 30 Jul 23:50:02 23:53:59 25° 298° (WNW) 23:57:48 437.505
AISAT 30 Jul 23:54:38 23:58:34 31° 264° (W) 00:02:28 437.250
Cosmos 2491 30 Jul 23:59:27 00:08:12 81° 81° (E) 00:16:56 435.465 / 435.565
UKube-1 31 Jul 00:00:32 00:03:32 18° 268° (W) 00:06:25 .
BEESAT 3 31 Jul 00:12:59 00:17:02 70° 121° (ESE) 00:21:07 437.485
CUBEBUG 1 31 Jul 00:13:18 00:17:18 34° 263° (W) 00:21:16 437.445
UNISAT 6 31 Jul 00:17:06 00:21:27 38° 289° (WNW) 00:25:47 437.425
YUBILEINY 31 Jul 00:21:44 00:29:54 50° 90° (E) 00:38:15 435.215
AUBIESAT-1 31 Jul 00:21:47 00:24:36 15° 303° (WNW) 00:27:14 437.475
POLYITAN 1 31 Jul 00:29:13 00:33:28 66° 286° (WNW) 00:37:43 437.675
RS-15 31 Jul 00:33:12 00:43:14 37° 327° (NNW) 00:53:30 29.354- 29.394
VELOX 1 31 Jul 00:36:32 00:38:31 12° 271° (W) 00:40:17 145.980
AIST 1 31 Jul 00:37:06 00:40:33 24° 270° (W) 00:43:55
ESTCUBE 1 31 Jul 00:41:21 00:44:19 16° 270° (W) 00:47:07 437.505/2401.250
POPSAT HIP 1 31 Jul 00:47:04 00:51:06 42° 288° (WNW) 00:55:08 437.405
QB50P2 31 Jul 00:54:29 00:58:22 34° 289° (WNW) 01:02:13 145.880/145.840
AIST 2 31 Jul 00:54:30 00:58:18 33° 116° (ESE) 01:02:10 435.215
SPROUT 31 Jul 00:54:43 00:58:45 40° 263° (W) 01:02:47 437.525
BUGSAT 1 31 Jul 00:58:46 01:02:42 48° 287° (WNW) 01:06:39 437.445
TIGRISAT 31 Jul 01:02:15 01:05:08 16° 296° (WNW) 01:07:51 435.000
ANTELSAT 31 Jul 01:03:34 01:06:17 15° 296° (WNW) 01:08:50 437.575/2403.000
Oscar 19 31 Jul 01:05:53 01:07:43 12° 87° (E) 01:09:53 437.125/150
ISS 31 Jul 01:06:06 01:08:07 15° 358° (N) 01:10:09 145.825
PHONESAT 2.4 31 Jul 01:06:58 01:10:17 41° 197° (SSW) 01:13:35 2401.200-2431.200
BEESAT 2 31 Jul 01:09:05 01:12:59 41° 309° (NW) 01:16:56 435.950
BEESAT 31 Jul 01:09:08 01:13:19 31° 68° (ENE) 01:17:34 436.000
TISAT 1 31 Jul 01:12:10 01:16:07 40° 262° (W) 01:20:05 437.305
DUCHIFAT 1 31 Jul 01:21:18 01:24:27 20° 293° (WNW) 01:27:30 145.980
QB50P1 31 Jul 01:23:36 01:26:36 19° 294° (WNW) 01:29:30 145.935-145.965
NANOSAT C BR1 31 Jul 01:25:28 01:28:24 18° 294° (WNW) 01:31:14 145.865
SWISSCUBE 31 Jul 01:28:55 01:33:35 53° 72° (ENE) 01:38:17 437.505
Cosmos 2504 31 Jul 01:34:26 01:37:18 13° 77° (ENE) 01:40:44 435.465 / 435.565
O/OREOS (USA 219) 31 Jul 01:35:49 01:39:48 33° 105° (ESE) 01:43:52 437.305
ITUPSAT 1 31 Jul 01:49:03 01:53:51 76° 76° (ENE) 01:58:41 437.325
BEESAT 3 31 Jul 01:52:55 01:55:28 15° 320° (NW) 01:57:54 437.485
Gurwin Techsat 1B 31 Jul 01:55:06 01:55:37 10° 85° (E) 01:56:33 435.225
Cosmos 2491 31 Jul 01:58:01 02:04:09 21° 280° (W) 02:09:53 435.465 / 435.565
STARS 31 Jul 02:02:50 02:03:54 11° 62° (ENE) 02:05:11 437.465
YUBILEINY 31 Jul 02:19:03 02:27:02 37° 290° (WNW) 02:34:56 435.215
ITAMSAT 1 31 Jul 02:22:44 02:26:03 18° 90° (E) 02:29:32 435.822/435.867
KKS-1 31 Jul 02:23:16 02:27:03 29° 69° (ENE) 02:30:55 437.445
AIST 2 31 Jul 02:33:12 02:36:54 28° 313° (NW) 02:40:35 435.215
Oscar 19 31 Jul 02:42:37 02:47:48 81° 286° (WNW) 02:53:00 437.125/150
ISS 31 Jul 02:42:44 02:45:24 23° 18° (NNE) 02:48:05 145.825
PHONESAT 2.4 31 Jul 02:46:09 02:47:44 12° 212° (SSW) 02:49:14 2401.200-2431.200
BEESAT 31 Jul 02:46:59 02:51:09 29° 265° (W) 02:55:17 436.000
RS-15 31 Jul 02:51:47 03:00:12 23° 1° (N) 03:08:54 29.354- 29.394
MOZHAYETS 4 31 Jul 03:07:13 03:08:26 11° 61° (ENE) 03:09:55
SWISSCUBE 31 Jul 03:08:38 03:11:49 17° 270° (W) 03:14:49 437.505
JAS-2 31 Jul 03:11:13 03:17:50 30° 91° (E) 03:24:35 435.910
AO-7 31 Jul 03:15:22 03:18:41 13° 84° (E) 03:22:40 29.400- 29.500
O/OREOS (USA 219) 31 Jul 03:15:33 03:19:18 25° 304° (WNW) 03:23:01 437.305
Cosmos 2504 31 Jul 03:21:11 03:28:15 82° 96° (E) 03:35:54 435.465 / 435.565
ITUPSAT 1 31 Jul 03:30:35 03:32:24 12° 273° (W) 03:33:55 437.325
Gurwin Techsat 1B 31 Jul 03:31:09 03:36:30 86° 100° (E) 03:41:50 435.225
STARS 31 Jul 03:35:24 03:39:46 79° 257° (WSW) 03:44:10 437.465
KKS-1 31 Jul 03:59:55 04:03:41 26° 265° (W) 04:07:24 437.445
ITAMSAT 1 31 Jul 04:00:54 04:06:00 58° 288° (WNW) 04:11:03 435.822/435.867
ISS 31 Jul 04:18:51 04:22:07 75° 217° (SW) 04:25:22 145.825
Oscar 19 31 Jul 04:24:46 04:26:26 11° 301° (WNW) 04:27:48 437.125/150
MOZHAYETS 4 31 Jul 04:40:23 04:45:02 86° 257° (WSW) 04:49:43
DANDE 31 Jul 04:47:26 04:50:41 41° 98° (E) 04:53:23 436.750
JAS-2 31 Jul 04:55:36 05:03:17 61° 289° (WNW) 05:10:53 435.910
HORYU 2 31 Jul 04:55:43 05:00:16 79° 103° (ESE) 05:04:46 437.375
CUBESAT XI-V 31 Jul 04:56:45 04:58:56 14° 63° (ENE) 05:01:20 437.345
AO-7 31 Jul 05:04:47 05:13:10 73° 105° (ESE) 05:21:28 29.400- 29.500
GONETS M04 31 Jul 05:05:49 05:11:35 21° 80° (E) 05:17:45
RS-15 31 Jul 05:06:47 05:17:14 37° 34° (NNE) 05:28:14 29.354- 29.394
Gurwin Techsat 1B 31 Jul 05:13:10 05:15:50 14° 300° (WNW) 05:18:16 435.225
Cosmos 2504 31 Jul 05:16:43 05:21:42 19° 299° (WNW) 05:26:34 435.465 / 435.565
CUSAT 1 31 Jul 05:16:47 05:19:27 30° 283° (WNW) 05:21:51 437.405
